This demonstration page uses our WeatherBlox Daily Observations layout. Learn more.

Hourly Observations for August 15, 2017

Temp ( °F °C ) Dew Point ( °F °C ) Humidity (%) Winds ( mph kmh ) Pressure ( in mb ) Visibility ( mi km ) Precip ( " mm )
12:15 am 00:15 Clear 70 21.2 67 19.6 91 91 ESE 12 19 29.74 1007 10 16.09344 0 0
12:35 am 00:35 Clear 70 21.1 67 19.5 91 91 ESE 9 15 29.74 1007 10 16.09344 0 0
12:55 am 00:55 Clear 69 20.8 67 19.3 91 91 SE 9 15 29.74 1007 10 16.09344 0 0
1:15 am 01:15 Clear 70 21 67 19.2 90 90 SE 9 15 29.74 1007 10 16.09344 0 0
1:35 am 01:35 Clear 69 20.6 66 19 91 91 SSE 7 11 29.74 1007 10 16.09344 0 0
1:55 am 01:55 Clear 69 20.6 66 19 91 91 SSE 7 11 29.74 1007 10 16.09344 0 0
2:15 am 02:15 Clear 69 20.5 66 18.8 90 90 SSE 6 9 29.74 1007 10 16.09344 0 0
2:35 am 02:35 Clear 69 20.5 66 18.7 89 89 SSE 6 9 29.74 1007 10 16.09344 0 0
2:55 am 02:55 Clear 69 20.5 65 18.6 89 89 S 5 7 29.71 1006 10 16.09344 0 0
3:15 am 03:15 Clear 69 20.4 65 18.5 89 89 S 3 6 29.71 1006 10 16.09344 0 0
3:35 am 03:35 Clear 68 19.8 65 18.1 90 90 SSE 5 7 29.71 1006 10 16.09344 0 0
3:55 am 03:55 Clear 67 19.3 64 18 92 92 SSE 5 7 29.71 1006 10 16.09344 0 0
4:15 am 04:15 Clear 67 19.3 65 18.1 93 93 Calm 29.71 1006 10 16.09344 0 0
4:35 am 04:35 Clear 67 19.5 65 18.2 92 92 S 3 6 29.71 1006 10 16.09344 0 0
4:55 am 04:55 Clear 67 19.7 64 18 90 90 S 3 6 29.71 1006 10 16.09344 0 0
5:15 am 05:15 Clear 68 19.8 64 18 89 89 S 5 7 29.71 1006 10 16.09344 0 0
5:35 am 05:35 Clear 66 19.1 64 17.7 92 92 Calm 29.74 1007 10 16.09344 0 0
5:55 am 05:55 Clear 65 18.5 63 17.3 93 93 Calm 29.74 1007 10 16.09344 0 0
6:15 am 06:15 Clear 65 18.6 64 17.7 95 95 Calm 29.74 1007 10 16.09344 0 0
6:35 am 06:35 Partly Cloudy 66 18.7 64 17.7 94 94 Calm 29.77 1008 10 16.09344 0 0
6:55 am 06:55 Mostly Cloudy 67 19.2 65 18.1 93 93 ESE 8 13 29.74 1007 10 16.09344 0 0
7:15 am 07:15 Partly Cloudy 66 19.1 64 18 93 93 E 7 11 29.77 1008 10 16.09344 0 0
7:35 am 07:35 Sunny 67 19.3 65 18.1 93 93 ENE 8 13 29.77 1008 7 11.265408 0 0
7:55 am 07:55 Sunny 67 19.5 65 18.5 94 94 ESE 9 15 29.77 1008 7 11.265408 0 0
8:15 am 08:15 Partly Cloudy with Mist and Fog 67 19.4 65 18.4 94 94 E 6 9 29.77 1008 3 4.828032 0 0
8:35 am 08:35 Cloudy with Mist and Fog 67 19.3 65 18.5 95 95 E 5 7 29.77 1008 0.75 1.207008 0 0
8:55 am 08:55 Cloudy with Mist and Fog 67 19.3 65 18.4 95 95 ENE 8 13 29.8 1009 0.75 1.207008 0 0
9:15 am 09:15 Cloudy with Mist and Fog 67 19.6 65 18.6 94 94 ENE 8 13 29.8 1009 2 3.218688 0 0
9:35 am 09:35 Cloudy with Mist and Fog 68 20.1 66 19.1 94 94 ENE 8 13 29.77 1008 4 6.437376 0 0
9:55 am 09:55 Mostly Cloudy 69 20.8 67 19.5 92 92 E 7 11 29.77 1008 7 11.265408 0 0
10:15 am 10:15 Mostly Cloudy with Mist and Fog 69 20.8 67 19.4 92 92 ENE 7 11 29.8 1009 5 8.04672 0 0
10:35 am 10:35 Mostly Cloudy 72 22 68 20 88 88 E 7 11 29.77 1008 7 11.265408 0 0
10:55 am 10:55 Mostly Cloudy 75 23.9 70 20.9 83 83 ESE 3 6 29.77 1008 10 16.09344 0 0
11:15 am 11:15 Partly Cloudy 78 25.3 68 20.2 73 73 SSE 6 9 29.71 1006 10 16.09344 0 0
11:35 am 11:35 Partly Cloudy 79 25.9 68 20 70 70 SSE 7 11 29.71 1006 10 16.09344 0 0
11:55 am 11:55 Sunny 80 26.5 68 20.2 68 68 S 9 15 29.71 1006 10 16.09344 0 0
12:15 pm 12:15 Sunny 82 27.8 70 20.9 66 66 SSE 12 19 29.71 1006 10 16.09344 0 0
12:35 pm 12:35 Sunny 84 28.8 69 20.8 62 62 SSE 12 19 29.65 1004 10 16.09344 0 0
12:55 pm 12:55 Sunny 84 28.8 69 20.3 60 60 S 13 20 29.65 1004 10 16.09344 0 0
1:15 pm 13:15 Partly Cloudy 85 29.2 68 20 58 58 S 16 26 29.65 1004 10 16.09344 0 0
1:35 pm 13:35 Partly Cloudy 85 29.7 68 19.9 56 56 SSE 12 19 29.65 1004 10 16.09344 0 0
1:55 pm 13:55 Partly Cloudy 86 30 67 19.7 54 54 SSE 14 22 29.65 1004 10 16.09344 0 0
2:15 pm 14:15 Partly Cloudy 85 29.6 66 18.8 52 52 S 10 17 29.65 1004 10 16.09344 0 0
2:35 pm 14:35 Partly Cloudy 87 30.8 65 18.4 48 48 S 12 19 29.65 1004 10 16.09344 0 0
2:55 pm 14:55 Sunny 88 30.9 65 18.3 47 47 S 10 17 29.62 1003 10 16.09344 0 0
3:15 pm 15:15 Partly Cloudy 88 31.1 65 18.2 46 46 S 9 15 29.62 1003 10 16.09344 0 0
3:35 pm 15:35 Sunny 88 31.1 66 18.8 48 48 SSE 14 22 29.62 1003 10 16.09344 0 0
3:55 pm 15:55 Partly Cloudy 87 30.6 65 18.5 48 48 SSE 8 13 29.62 1003 10 16.09344 0 0
4:15 pm 16:15 Partly Cloudy with Nearby Thunderstorms 88 30.9 66 18.7 48 48 SE 12 19 29.62 1003 10 16.09344 0 0
4:35 pm 16:35 Partly Cloudy with Nearby Thunderstorms 85 29.5 67 19.2 54 54 SE 9 15 29.62 1003 10 16.09344 0 0
4:55 pm 16:55 Partly Cloudy 85 29.7 65 18.4 51 51 S 20 31 29.62 1003 10 16.09344 0 0
5:15 pm 17:15 Partly Cloudy 83 28.5 63 17 50 50 S 13 20 29.62 1003 10 16.09344 0 0
5:35 pm 17:35 Sunny with Nearby Thunderstorms 84 28.8 61 16.1 46 46 SSE 13 20 29.62 1003 10 16.09344 0 0
5:55 pm 17:55 Sunny 85 29.5 63 17.1 47 47 SSE 8 13 29.62 1003 10 16.09344 0 0
6:15 pm 18:15 Sunny 85 29.5 66 18.8 53 53 SE 9 15 29.62 1003 10 16.09344 0 0
6:35 pm 18:35 Sunny 84 29 66 19.1 55 55 ESE 9 15 29.59 1002 10 16.09344 0 0
6:55 pm 18:55 Sunny 83 28.5 67 19.4 58 58 ESE 9 15 29.59 1002 10 16.09344 0 0
7:15 pm 19:15 Sunny 82 28 68 19.8 61 61 ESE 10 17 29.62 1003 10 16.09344 0 0
7:35 pm 19:35 Sunny 81 27.2 69 20.3 66 66 E 10 17 29.62 1003 10 16.09344 0 0
7:55 pm 19:55 Sunny 79 26.3 69 20.5 71 71 E 8 13 29.62 1003 10 16.09344 0 0
8:15 pm 20:15 Mostly Cloudy 78 25.7 69 20.7 74 74 E 9 15 29.65 1004 10 16.09344 0 0
8:35 pm 20:35 Partly Cloudy with Thunderstorms 79 26.1 67 19.2 66 66 SE 9 15 29.65 1004 10 16.09344 0 0
8:55 pm 20:55 Mostly Cloudy with Rain 77 25.1 67 19.5 71 71 SSE 8 13 29.65 1004 10 16.09344 0 0
9:15 pm 21:15 Mostly Cloudy with Light Rain 75 24 68 20.1 79 79 SSE 9 15 29.68 1005 10 16.09344 0.01 0.254
9:35 pm 21:35 Partly Cloudy with Thunderstorms 73 22.9 69 20.5 86 86 NNE 7 11 29.68 1005 10 16.09344 0.01 0.254
9:55 pm 21:55 Mostly Cloudy 71 21.6 67 19.5 88 88 NNE 10 17 29.68 1005 10 16.09344 0.01 0.254
10:15 pm 22:15 Cloudy 71 21.5 67 19.5 88 88 NE 10 17 29.71 1006 10 16.09344 0 0
10:35 pm 22:35 Cloudy 71 21.7 66 19 85 85 ENE 12 19 29.71 1006 10 16.09344 0 0
10:55 pm 22:55 Cloudy 69 20.6 65 18.4 87 87 ENE 18 30 29.77 1008 10 16.09344 0 0
11:15 pm 23:15 Cloudy 68 20.2 65 18.3 89 89 NE 14 22 29.77 1008 10 16.09344 0 0
11:35 pm 23:35 Cloudy 68 19.8 64 18 89 89 NE 9 15 29.8 1009 10 16.09344 0 0
11:55 pm 23:55 Mostly Cloudy 67 19.2 64 17.5 90 90 ENE 14 22 29.77 1008 10 16.09344 0 0

Powered by AerisWeather